Time,TemperatureF,DewpointF,PressureIn,WindDirection,WindDirectionDegrees,WindSpeedMPH,WindSpeedGustMPH,Humidity,HourlyPrecipIn,Conditions,Clouds,dailyrainin,SoftwareType,DateUTC
2013-03-30 00:14:00,63.6,42.0,29.88,ESE,121,0.0,2.0,46,0.00,,,0.00,weatherlink.com 1.10,2013-03-30 05:14:00,
2013-03-30 00:29:00,62.6,43.0,29.87,ESE,121,3.0,4.0,49,0.00,,,0.00,weatherlink.com 1.10,2013-03-30 05:29:00,
2013-03-30 00:44:00,62.3,43.0,29.88,ESE,121,0.0,3.0,49,0.00,,,0.00,weatherlink.com 1.10,2013-03-30 05:44:00,
2013-03-30 00:59:00,62.7,43.0,29.87,ESE,121,0.0,7.0,48,0.00,,,0.00,weatherlink.com 1.10,2013-03-30 05:59:00,
2013-03-30 01:14:00,60.7,44.0,29.87,ESE,121,0.0,2.0,54,0.00,,,0.00,weatherlink.com 1.10,2013-03-30 06:14:00,
2013-03-30 01:29:00,61.7,43.0,29.88,ESE,121,0.0,2.0,50,0.00,,,0.00,weatherlink.com 1.10,2013-03-30 06:29:00,
2013-03-30 01:44:00,61.2,41.0,29.87,ESE,121,0.0,4.0,48,0.00,,,0.00,weatherlink.com 1.10,2013-03-30 06:44:00,
2013-03-30 01:59:00,60.4,41.0,29.87,ESE,121,0.0,1.0,49,0.00,,,0.00,weatherlink.com 1.10,2013-03-30 06:59:00,
2013-03-30 02:14:00,59.3,41.0,29.87,ESE,121,0.0,1.0,51,0.00,,,0.00,weatherlink.com 1.10,2013-03-30 07:14:00,
2013-03-30 02:29:00,59.8,40.0,29.87,ESE,121,0.0,1.0,49,0.00,,,0.00,weatherlink.com 1.10,2013-03-30 07:29:00,
2013-03-30 02:44:00,59.2,40.0,29.87,ESE,121,1.0,1.0,50,0.00,,,0.00,weatherlink.com 1.10,2013-03-30 07:44:00,
2013-03-30 02:59:00,59.7,40.0,29.87,ESE,121,0.0,1.0,49,0.00,,,0.00,weatherlink.com 1.10,2013-03-30 07:59:00,
2013-03-30 03:14:00,59.2,40.0,29.87,ESE,121,0.0,1.0,50,0.00,,,0.00,weatherlink.com 1.10,2013-03-30 08:14:00,
2013-03-30 03:29:00,58.8,40.0,29.87,ESE,121,1.0,2.0,50,0.00,,,0.00,weatherlink.com 1.10,2013-03-30 08:29:00,
2013-03-30 03:44:00,59.7,39.0,29.87,ESE,121,0.0,1.0,47,0.00,,,0.00,weatherlink.com 1.10,2013-03-30 08:44:00,
2013-03-30 03:59:00,59.5,40.0,29.86,ESE,121,0.0,2.0,48,0.00,,,0.00,weatherlink.com 1.10,2013-03-30 08:59:00,
2013-03-30 04:14:00,59.4,39.0,29.86,ESE,121,1.0,3.0,48,0.00,,,0.00,weatherlink.com 1.10,2013-03-30 09:14:00,
2013-03-30 04:29:00,59.3,39.0,29.86,ESE,121,0.0,1.0,48,0.00,,,0.00,weatherlink.com 1.10,2013-03-30 09:29:00,
2013-03-30 04:44:00,58.0,39.0,29.86,ESE,121,0.0,0.0,49,0.00,,,0.00,weatherlink.com 1.10,2013-03-30 09:44:00,
2013-03-30 04:59:00,59.5,37.0,29.86,ESE,121,2.0,2.0,44,0.00,,,0.00,weatherlink.com 1.10,2013-03-30 09:59:00,
2013-03-30 05:14:00,59.3,38.0,29.86,ESE,121,0.0,0.0,45,0.00,,,0.00,weatherlink.com 1.10,2013-03-30 10:14:00,
2013-03-30 05:29:00,58.6,38.0,29.86,ESE,121,0.0,2.0,47,0.00,,,0.00,weatherlink.com 1.10,2013-03-30 10:29:00,
2013-03-30 05:44:00,58.6,38.0,29.86,ESE,121,1.0,1.0,46,0.00,,,0.00,weatherlink.com 1.10,2013-03-30 10:44:00,
2013-03-30 05:59:00,58.0,37.0,29.86,ESE,121,0.0,0.0,46,0.00,,,0.00,weatherlink.com 1.10,2013-03-30 10:59:00,
2013-03-30 06:14:00,56.3,37.0,29.86,ESE,121,0.0,1.0,48,0.00,,,0.00,weatherlink.com 1.10,2013-03-30 11:14:00,
2013-03-30 06:29:00,58.4,35.0,29.86,ESE,121,1.0,3.0,42,0.00,,,0.00,weatherlink.com 1.10,2013-03-30 11:29:00,
2013-03-30 06:44:00,59.2,33.0,29.86,ESE,121,1.0,3.0,38,0.00,,,0.00,weatherlink.com 1.10,2013-03-30 11:44:00,
2013-03-30 06:59:00,59.1,32.0,29.86,ESE,121,0.0,1.0,36,0.00,,,0.00,weatherlink.com 1.10,2013-03-30 11:59:00,
2013-03-30 07:15:00,57.5,32.0,29.86,ESE,121,0.0,1.0,38,0.00,,,0.00,weatherlink.com 1.10,2013-03-30 12:15:00,
2013-03-30 07:30:00,58.7,34.0,29.86,ESE,121,1.0,2.0,39,0.00,,,0.00,weatherlink.com 1.10,2013-03-30 12:30:00,
2013-03-30 07:44:00,56.9,33.0,29.87,ESE,121,0.0,1.0,41,0.00,,,0.00,weatherlink.com 1.10,2013-03-30 12:44:00,
2013-03-30 08:00:00,57.0,30.0,29.87,ESE,121,0.0,0.0,36,0.00,,,0.00,weatherlink.com 1.10,2013-03-30 13:00:00,
2013-03-30 08:15:00,56.1,31.0,29.88,ESE,121,0.0,1.0,38,0.00,,,0.00,weatherlink.com 1.10,2013-03-30 13:15:00,
2013-03-30 08:30:00,58.5,32.0,29.89,ESE,121,0.0,2.0,37,0.00,,,0.00,weatherlink.com 1.10,2013-03-30 13:30:00,
2013-03-30 08:45:00,58.7,33.0,29.89,ESE,121,0.0,1.0,38,0.00,,,0.00,weatherlink.com 1.10,2013-03-30 13:45:00,
2013-03-30 09:00:00,61.0,33.0,29.89,ESE,121,0.0,1.0,35,0.00,,,0.00,weatherlink.com 1.10,2013-03-30 14:00:00,
2013-03-30 09:15:00,63.4,32.0,29.89,ESE,121,0.0,0.0,31,0.00,,,0.00,weatherlink.com 1.10,2013-03-30 14:15:00,
2013-03-30 09:30:00,64.0,32.0,29.90,ESE,121,0.0,1.0,30,0.00,,,0.00,weatherlink.com 1.10,2013-03-30 14:30:00,
2013-03-30 09:45:00,66.3,28.0,29.90,ESE,121,1.0,2.0,24,0.00,,,0.00,weatherlink.com 1.10,2013-03-30 14:45:00,
2013-03-30 10:00:00,69.1,29.0,29.90,ESE,121,0.0,3.0,22,0.00,,,0.00,weatherlink.com 1.10,2013-03-30 15:00:00,
2013-03-30 10:15:00,70.8,30.0,29.90,ESE,121,0.0,1.0,22,0.00,,,0.00,weatherlink.com 1.10,2013-03-30 15:15:00,
2013-03-30 10:30:00,72.8,29.0,29.89,ESE,121,0.0,1.0,20,0.00,,,0.00,weatherlink.com 1.10,2013-03-30 15:30:00,
2013-03-30 10:45:00,74.0,25.0,29.89,ESE,121,1.0,3.0,16,0.00,,,0.00,weatherlink.com 1.10,2013-03-30 15:45:00,
2013-03-30 11:00:00,75.0,27.0,29.89,ESE,121,0.0,3.0,17,0.00,,,0.00,weatherlink.com 1.10,2013-03-30 16:00:00,
2013-03-30 11:15:00,77.3,24.0,29.89,SE,140,2.0,6.0,14,0.00,,,0.00,weatherlink.com 1.10,2013-03-30 16:15:00,
2013-03-30 11:30:00,77.2,21.0,29.88,SW,216,5.0,5.0,12,0.00,,,0.00,weatherlink.com 1.10,2013-03-30 16:30:00,
2013-03-30 11:45:00,77.8,14.0,29.89,West,279,3.0,9.0,9,0.00,,,0.00,weatherlink.com 1.10,2013-03-30 16:45:00,
2013-03-30 12:00:00,79.3,18.0,29.88,West,281,5.0,8.0,10,0.00,,,0.00,weatherlink.com 1.10,2013-03-30 17:00:00,
2013-03-30 12:16:00,78.0,17.0,29.88,WNW,290,3.0,9.0,10,0.00,,,0.00,weatherlink.com 1.10,2013-03-30 17:16:00,
2013-03-30 12:31:00,78.3,17.0,29.88,WNW,290,0.0,7.0,10,0.00,,,0.00,weatherlink.com 1.10,2013-03-30 17:31:00,
2013-03-30 12:46:00,79.6,18.0,29.88,WNW,290,8.0,10.0,10,0.00,,,0.00,weatherlink.com 1.10,2013-03-30 17:46:00,
2013-03-30 13:01:00,79.4,18.0,29.87,West,271,6.0,11.0,10,0.00,,,0.00,weatherlink.com 1.10,2013-03-30 18:01:00,
2013-03-30 13:16:00,80.1,19.0,29.87,West,276,5.0,12.0,10,0.00,,,0.00,weatherlink.com 1.10,2013-03-30 18:16:00,
2013-03-30 13:31:00,79.9,16.0,29.86,West,273,1.0,11.0,9,0.00,,,0.00,weatherlink.com 1.10,2013-03-30 18:31:00,
2013-03-30 13:46:00,81.5,17.0,29.86,West,265,9.0,16.0,9,0.00,,,0.00,weatherlink.com 1.10,2013-03-30 18:46:00,
2013-03-30 14:46:00,82.4,21.0,29.83,West,260,14.0,15.0,10,0.00,,,0.00,weatherlink.com 1.10,2013-03-30 19:46:00,
2013-03-30 15:16:00,82.8,18.0,29.81,West,261,10.0,17.0,9,0.00,,,0.00,weatherlink.com 1.10,2013-03-30 20:16:00,
2013-03-30 15:31:00,83.3,19.0,29.80,WSW,258,10.0,15.0,9,0.00,,,0.00,weatherlink.com 1.10,2013-03-30 20:31:00,
2013-03-30 15:46:00,83.1,19.0,29.80,WNW,284,10.0,17.0,9,0.00,,,0.00,weatherlink.com 1.10,2013-03-30 20:46:00,
2013-03-30 16:31:00,81.9,18.0,29.76,West,273,10.0,21.0,9,0.00,,,0.00,weatherlink.com 1.10,2013-03-30 21:31:00,
2013-03-30 16:46:00,82.0,20.0,29.76,WNW,291,7.0,9.0,10,0.00,,,0.00,weatherlink.com 1.10,2013-03-30 21:46:00,
2013-03-30 17:01:00,82.3,20.0,29.76,WNW,284,6.0,15.0,10,0.00,,,0.00,weatherlink.com 1.10,2013-03-30 22:01:00,
2013-03-30 17:16:00,82.3,20.0,29.75,West,261,8.0,13.0,10,0.00,,,0.00,weatherlink.com 1.10,2013-03-30 22:16:00,
2013-03-30 17:46:00,80.7,19.0,29.75,WNW,283,6.0,10.0,10,0.00,,,0.00,weatherlink.com 1.10,2013-03-30 22:46:00,
2013-03-30 18:01:00,80.7,19.0,29.74,WNW,283,6.0,11.0,10,0.00,,,0.00,weatherlink.com 1.10,2013-03-30 23:01:00,
2013-03-30 18:31:00,80.3,19.0,29.73,WNW,291,10.0,15.0,10,0.00,,,0.00,weatherlink.com 1.10,2013-03-30 23:31:00,
2013-03-30 18:46:00,79.7,18.0,29.73,WNW,284,8.0,12.0,10,0.00,,,0.00,weatherlink.com 1.10,2013-03-30 23:46:00,
2013-03-30 19:01:00,78.4,17.0,29.73,WNW,284,9.0,15.0,10,0.00,,,0.00,weatherlink.com 1.10,2013-03-31 00:01:00,
2013-03-30 19:16:00,78.1,19.0,29.74,West,281,9.0,11.0,11,0.00,,,0.00,weatherlink.com 1.10,2013-03-31 00:16:00,
2013-03-30 19:31:00,77.2,19.0,29.74,WNW,283,5.0,8.0,11,0.00,,,0.00,weatherlink.com 1.10,2013-03-31 00:31:00,
2013-03-30 19:46:00,76.5,20.0,29.74,WNW,283,4.0,6.0,12,0.00,,,0.00,weatherlink.com 1.10,2013-03-31 00:46:00,
2013-03-30 20:01:00,75.3,19.0,29.74,WNW,283,3.0,6.0,12,0.00,,,0.00,weatherlink.com 1.10,2013-03-31 01:01:00,
2013-03-30 20:16:00,74.2,18.0,29.74,WNW,283,0.0,4.0,12,0.00,,,0.00,weatherlink.com 1.10,2013-03-31 01:16:00,
2013-03-30 20:31:00,73.9,18.0,29.74,WNW,283,0.0,2.0,12,0.00,,,0.00,weatherlink.com 1.10,2013-03-31 01:31:00,
2013-03-30 20:46:00,72.5,21.0,29.74,WNW,283,0.0,1.0,14,0.00,,,0.00,weatherlink.com 1.10,2013-03-31 01:46:00,
2013-03-30 21:01:00,72.2,20.0,29.75,WNW,283,0.0,1.0,14,0.00,,,0.00,weatherlink.com 1.10,2013-03-31 02:01:00,
2013-03-30 21:16:00,72.7,19.0,29.74,WNW,283,0.0,2.0,13,0.00,,,0.00,weatherlink.com 1.10,2013-03-31 02:16:00,
2013-03-30 21:31:00,71.6,20.0,29.75,WNW,283,0.0,4.0,14,0.00,,,0.00,weatherlink.com 1.10,2013-03-31 02:31:00,
2013-03-30 21:46:00,69.6,21.0,29.76,WNW,283,0.0,2.0,16,0.00,,,0.00,weatherlink.com 1.10,2013-03-31 02:46:00,
2013-03-30 22:01:00,70.8,19.0,29.76,WNW,283,0.0,1.0,14,0.00,,,0.00,weatherlink.com 1.10,2013-03-31 03:01:00,
2013-03-30 22:16:00,69.9,20.0,29.76,WNW,283,0.0,2.0,15,0.00,,,0.00,weatherlink.com 1.10,2013-03-31 03:16:00,
2013-03-30 22:31:00,70.3,20.0,29.76,WNW,283,0.0,1.0,15,0.00,,,0.00,weatherlink.com 1.10,2013-03-31 03:31:00,
2013-03-30 22:46:00,70.1,20.0,29.76,WNW,283,0.0,1.0,15,0.00,,,0.00,weatherlink.com 1.10,2013-03-31 03:46:00,
2013-03-30 23:01:00,69.6,20.0,29.76,WNW,283,0.0,0.0,15,0.00,,,0.00,weatherlink.com 1.10,2013-03-31 04:01:00,
2013-03-30 23:31:00,68.0,21.0,29.77,WNW,283,0.0,0.0,17,0.00,,,0.00,weatherlink.com 1.10,2013-03-31 04:31:00,
2013-03-30 23:46:00,67.8,21.0,29.77,WNW,283,0.0,4.0,17,0.00,,,0.00,weatherlink.com 1.10,2013-03-31 04:46:00,